[[{"header":{"parameterUnit":"m.s-1","parameterCategory":1,"la1":30.2991,"la2":30.254,"lo1":-89.0895,"lo2":-89.0444,"dy":0.0017,"dx":0.0017,"nx":28,"ny":28,"refTime":"2025-01-22T09:00:00:Z","depth":0,"parameterNumber":2,"parameterNumberName":"U-component_of_WINDS"},"data":[0,0,0,0,0,0,0,0,0,0,0,0,0,0,0,0,0,0,0,0,0,0,0,0,0,0,0,0,0,0,0,0,0,0,0,0,0,0,0,0,0,0,0,0,0,0,0,0,0,0,0,0,0,0,0,0,0,0,0.7289,0.7288,0,0.7202,0.7201,0.72,0.7182,0.7183,0.7183,0.7184,0.7094,0.7091,0.7088,0,0,0,0,0,0,0,0,0,0,0,0,0,0.7441,0.7439,0.729,0.7288,0.7287,0.7202,0.7201,0.72,0.7182,0.7183,0.7183,0.7184,0.7095,0.7092,0.7088,0,0,0,0,0,0,0,0,0,0,0,0,0,0.7367,0.7438,0.729,0.7268,0.7265,0.7202,0.7201,0.72,0.7182,0.7183,0.7184,0.7185,0.7096,0.7092,0.7087,0.704,0,0,0.7074,0.7072,0,0,0,0,0,0,0,0,0.7371,0.7361,0.7272,0.7269,0.7266,0.7204,0.7222,0.7146,0.7181,0.7213,0.7184,0.7185,0.713,0.7123,0.7104,0.7036,0.7032,0.7073,0.707,0.7069,0.7067,0,0,0,0,0,0,0,0.7376,0.7365,0.7255,0.7271,0.7267,0.7263,0.7253,0.7207,0.7167,0.7211,0.7209,0.7199,0.7128,0.7108,0.7102,0.703,0.7073,0.7069,0.7067,0.7065,0.6919,0.6918,0,0,0,0,0,0,0.7385,0.7369,0.7258,0.7252,0.7322,0.7259,0.7249,0.7223,0.7168,0.716,0.7198,0.7199,0.7116,0.7107,0.7099,0.7039,0.7069,0.7064,0.7062,0.692,0.6919,0.6918,0,0,0,0,0,0,0.7389,0.7375,0.7261,0.731,0.7295,0.7256,0.7227,0.7221,0.7201,0.7158,0.7151,0.7185,0.7116,0.7105,0.7055,0.7035,0.7062,0.7058,0.6922,0.692,0.6918,0.6919,0,0,0,0,0,0,0.7393,0.7377,0.7358,0.731,0.7293,0.7218,0.7226,0.7218,0.7193,0.7192,0.7144,0.7137,0.7116,0.7062,0.705,0.703,0.7055,0.6923,0.6921,0.6919,0.692,0.6917,0.6915,0,0,0,0,0,0.7398,0.7361,0.7357,0.7344,0.7269,0.7217,0.7207,0.7184,0.7192,0.7172,0.7145,0.7138,0.704,0.7057,0.7044,0.7021,0.6924,0.6922,0.6919,0.6922,0.6918,0.6915,0,0,0,0,0,0,0.7407,0.7355,0.7349,0.7296,0.7261,0.7214,0.7189,0.7181,0.7144,0.7144,0.7117,0.7107,0.7058,0.7035,0.7054,0.6973,0.6983,0.6977,0.6989,0.6985,0.6983,0.6988,0.7051,0,0,0,0,0,0.7403,0.7366,0.7322,0.7279,0.7262,0.7229,0.7206,0.7191,0.7154,0.7139,0.7108,0.7073,0.7034,0.7009,0.6971,0.6918,0.6907,0.6897,0.6894,0.6892,0.6887,0.6857,0.6852,0.6909,0.6909,0.6909,0,0,0.7394,0.7361,0.7339,0.728,0.7252,0.7213,0.7217,0.7176,0.7148,0.7133,0.7083,0.706,0.7019,0.6967,0.6943,0.6947,0.6869,0.6889,0.6887,0.6883,0.6854,0.6849,0.6844,0.6907,0.6908,0.6908,0,0,0.7357,0.7329,0.7289,0.7261,0.7218,0.7197,0.7188,0.7142,0.7126,0.7076,0.7065,0.7031,0.6965,0.6935,0.6912,0.6867,0.6859,0.6855,0.684,0.6811,0.6807,0.6803,0.6785,0.678,0.6851,0.6851,0.6851,0,0.735,0.7292,0.727,0.723,0.7205,0.7191,0.7151,0.7125,0.7072,0.7055,0.706,0.6977,0.6948,0.6889,0.6879,0.6861,0.6849,0.6859,0.6809,0.6805,0.6801,0.6784,0.6778,0.6851,0.6851,0.6851,0.6851,0,0.7286,0.7247,0.722,0.7169,0.7141,0.7102,0.7074,0.7048,0.7037,0.7015,0.6965,0.693,0.6885,0.6871,0.6859,0.681,0.6814,0.6815,0.6824,0.6795,0.6779,0.6773,0.685,0.685,0.6851,0.6851,0,0,0.725,0.7189,0.7179,0.7156,0.7109,0.7078,0.7038,0.6994,0.6972,0.6937,0.6903,0.6848,0.6849,0.6823,0.6808,0.6783,0.6749,0.6787,0.6786,0.678,0.6692,0.669,0.6683,0.6744,0.6743,0.6742,0.6695,0,0.7206,0.7134,0.7113,0.7053,0.7015,0.7003,0.6969,0.6936,0.6916,0.6881,0.6859,0.682,0.6824,0.6808,0.6784,0.6758,0.673,0.6762,0.6711,0.671,0.672,0.6675,0.6672,0.663,0.6689,0.6688,0.6687,0,0.7144,0.7108,0.7043,0.7001,0.6985,0.6954,0.6913,0.6881,0.6844,0.6831,0.6802,0.679,0.6749,0.6762,0.6705,0.6726,0.6705,0.669,0.6688,0.668,0.6695,0.6664,0.6616,0.6609,0.6677,0.6678,0.6679,0,0.7122,0.7057,0.701,0.6991,0.6942,0.692,0.6899,0.6863,0.6838,0.6803,0.6786,0.6746,0.6724,0.6694,0.6671,0.6683,0.6616,0.6627,0.6603,0.6603,0.6587,0.6587,0.6532,0.6577,0.6577,0.6577,0.6577,0,0.7074,0.7034,0.7,0.697,0.6926,0.6904,0.6861,0.684,0.6809,0.6775,0.6763,0.6732,0.6706,0.6671,0.6654,0.6609,0.6599,0.6587,0.6583,0.6587,0.6588,0.6571,0.6572,0.6576,0.6576,0.6576,0.6577,0,0.704,0.7015,0.6963,0.6921,0.691,0.6879,0.6843,0.6815,0.6795,0.6753,0.6742,0.671,0.6669,0.6645,0.6593,0.6582,0.6531,0.6529,0.6543,0.654,0.6517,0.6519,0.6446,0.6435,0.649,0.6489,0.6489,0,0.7009,0.6979,0.6934,0.6911,0.6889,0.6852,0.6827,0.6805,0.6779,0.6736,0.6713,0.6671,0.6637,0.6572,0.6545,0.6505,0.6501,0.6478,0.6495,0.65,0.6498,0.65,0.6496,0.6475,0.6474,0.6474,0.6473,0,0.6957,0.6947,0.6911,0.6871,0.6841,0.6809,0.6776,0.6758,0.6731,0.6703,0.6661,0.6635,0.6582,0.6541,0.65,0.6478,0.6471,0.6469,0.6461,0.6464,0.6472,0.6466,0.6533,0.647,0.647,0.6471,0.6471,0.6471,0.6923,0.6895,0.6859,0.682,0.6794,0.6764,0.6735,0.6712,0.6677,0.6632,0.6622,0.6578,0.6544,0.6487,0.6465,0.6431,0.6434,0.6423,0.6419,0.6416,0.6415,0.648,0.6423,0.6423,0.6423,0.6423,0.6424,0,0.6869,0.6846,0.681,0.6765,0.6734,0.6732,0.6696,0.667,0.6631,0.66,0.6567,0.6519,0.648,0.645,0.641,0.6388,0.6384,0.6378,0.6378,0.6373,0.6415,0.6425,0.6382,0.6382,0.6382,0.6382,0.6382,0.6382,0.6837,0.6789,0.6775,0.6715,0.6693,0.6649,0.6629,0.6602,0.6577,0.6524,0.6491,0.6472,0.6442,0.6399,0.6363,0.6356,0.6341,0.6335,0.6327,0.6366,0.637,0.6374,0.6383,0.6333,0.6332,0.6287,0.6287,0.6287]},{"header":{"parameterUnit":"m.s-1","parameterCategory":1,"la1":30.2991,"la2":30.254,"lo1":-89.0895,"lo2":-89.0444,"dy":0.0017,"dx":0.0017,"nx":28,"ny":28,"refTime":"2025-01-22T09:00:00:Z","depth":0,"parameterNumber":3,"parameterNumberName":"V-component_of_WINDS"},"data":[0,0,0,0,0,0,0,0,0,0,0,0,0,0,0,0,0,0,0,0,0,0,0,0,0,0,0,0,0,0,0,0,0,0,0,0,0,0,0,0,0,0,0,0,0,0,0,0,0,0,0,0,0,0,0,0,0,0,-7.6032,-7.6034,0,-7.6224,-7.6226,-7.6228,-7.6147,-7.6143,-7.6138,-7.6134,-7.6322,-7.6331,-7.634,0,0,0,0,0,0,0,0,0,0,0,0,0,-7.5587,-7.5595,-7.6032,-7.6034,-7.6037,-7.6224,-7.6226,-7.6229,-7.6148,-7.6142,-7.6137,-7.6132,-7.6319,-7.633,-7.6341,0,0,0,0,0,0,0,0,0,0,0,0,0,-7.5779,-7.5598,-7.6031,-7.6019,-7.602,-7.6223,-7.6226,-7.623,-7.6149,-7.6142,-7.6135,-7.6129,-7.6315,-7.6329,-7.6343,-7.6567,0,0,-7.6385,-7.6392,0,0,0,0,0,0,0,0,-7.5769,-7.5796,-7.6018,-7.602,-7.6021,-7.6155,-7.6138,-7.6343,-7.6151,-7.61,-7.6134,-7.6126,-7.6272,-7.6289,-7.634,-7.6576,-7.6584,-7.6387,-7.6395,-7.6401,-7.6405,0,0,0,0,0,0,0,-7.5755,-7.5787,-7.6107,-7.6022,-7.6024,-7.6001,-7.6021,-7.6177,-7.6222,-7.6104,-7.6098,-7.6123,-7.6271,-7.6326,-7.6343,-7.6587,-7.6386,-7.6399,-7.6407,-7.6413,-7.7017,-7.7024,0,0,0,0,0,0,-7.5743,-7.5776,-7.6101,-7.6113,-7.5876,-7.6015,-7.6037,-7.6119,-7.622,-7.6229,-7.6128,-7.6118,-7.6306,-7.6327,-7.635,-7.662,-7.6401,-7.6414,-7.6422,-7.701,-7.7019,-7.7027,0,0,0,0,0,0,-7.5734,-7.5773,-7.6094,-7.5944,-7.5983,-7.603,-7.6122,-7.6126,-7.6182,-7.6239,-7.6245,-7.6178,-7.6301,-7.633,-7.6515,-7.6626,-7.642,-7.6433,-7.7001,-7.7012,-7.7023,-7.7163,0,0,0,0,0,0,-7.5721,-7.577,-7.5858,-7.5946,-7.5991,-7.6258,-7.6129,-7.6135,-7.6207,-7.6196,-7.6286,-7.6295,-7.6298,-7.6494,-7.6528,-7.6641,-7.6444,-7.6991,-7.7006,-7.7019,-7.7148,-7.7177,-7.7202,0,0,0,0,0,-7.5706,-7.5887,-7.5862,-7.5902,-7.6102,-7.6265,-7.629,-7.6293,-7.6216,-7.6304,-7.634,-7.6292,-7.6608,-7.6514,-7.6552,-7.667,-7.6984,-7.7002,-7.7018,-7.7136,-7.7172,-7.7202,0,0,0,0,0,0,-7.5807,-7.5898,-7.5872,-7.6088,-7.617,-7.6251,-7.6361,-7.633,-7.6433,-7.6418,-7.6413,-7.6435,-7.6626,-7.6666,-7.6559,-7.6893,-7.6784,-7.6809,-7.686,-7.6895,-7.6921,-7.6908,-7.6456,0,0,0,0,0,-7.5855,-7.5982,-7.6054,-7.6237,-7.628,-7.6314,-7.6385,-7.638,-7.6463,-7.6496,-7.6546,-7.6626,-7.6743,-7.6821,-7.6932,-7.7153,-7.7171,-7.7253,-7.728,-7.7302,-7.7324,-7.7445,-7.7482,-7.7084,-7.7084,-7.7083,0,0,-7.5954,-7.602,-7.61,-7.6259,-7.6322,-7.6452,-7.6343,-7.6484,-7.658,-7.6516,-7.6696,-7.6735,-7.6823,-7.7028,-7.712,-7.7067,-7.7438,-7.7324,-7.7341,-7.7352,-7.7467,-7.7504,-7.7538,-7.7096,-7.7094,-7.7092,0,0,-7.6203,-7.6265,-7.6426,-7.6492,-7.6589,-7.661,-7.6649,-7.6736,-7.676,-7.694,-7.6895,-7.7007,-7.7209,-7.7275,-7.7335,-7.7609,-7.7568,-7.7644,-7.7786,-7.7904,-7.7935,-7.7963,-7.8062,-7.8097,-7.7666,-7.7667,-7.7667,0,-7.6313,-7.651,-7.6511,-7.6658,-7.6729,-7.668,-7.6842,-7.6904,-7.7032,-7.7081,-7.702,-7.7274,-7.733,-7.755,-7.7617,-7.7666,-7.7709,-7.7635,-7.7931,-7.7959,-7.7985,-7.8079,-7.8116,-7.7675,-7.7674,-7.7674,-7.7673,0,-7.6642,-7.6779,-7.6896,-7.7025,-7.7108,-7.7261,-7.7284,-7.7368,-7.7356,-7.7384,-7.7567,-7.7632,-7.7757,-7.7808,-7.7796,-7.8026,-7.799,-7.7931,-7.7821,-7.8032,-7.812,-7.8156,-7.7688,-7.7685,-7.7682,-7.768,0,0,-7.696,-7.7088,-7.7132,-7.719,-7.7294,-7.7398,-7.7548,-7.7672,-7.7745,-7.7834,-7.7959,-7.8132,-7.8078,-7.8146,-7.814,-7.8244,-7.8458,-7.8171,-7.8173,-7.8223,-7.8716,-7.8762,-7.8804,-7.8431,-7.8437,-7.8443,-7.8709,0,-7.7217,-7.7485,-7.7491,-7.7734,-7.7861,-7.7816,-7.7946,-7.8023,-7.8052,-7.8161,-7.8191,-7.8315,-7.8234,-7.8275,-7.8375,-7.8411,-7.8557,-7.8391,-7.8546,-7.8552,-7.8527,-7.885,-7.8898,-7.9146,-7.8743,-7.8749,-7.8753,0,-7.7554,-7.7658,-7.7915,-7.8002,-7.8055,-7.8173,-7.8288,-7.8393,-7.8479,-7.8492,-7.857,-7.8549,-7.87,-7.8585,-7.8792,-7.868,-7.8742,-7.877,-7.8779,-7.8795,-7.8666,-7.8875,-7.9225,-7.9263,-7.8808,-7.8803,-7.8799,0,-7.7762,-7.7965,-7.8147,-7.8197,-7.8303,-7.8387,-7.8434,-7.8513,-7.8587,-7.8686,-7.8734,-7.8848,-7.8911,-7.8999,-7.9009,-7.8924,-7.9218,-7.9103,-7.9232,-7.9233,-7.9297,-7.9294,-7.9664,-7.9336,-7.9335,-7.9335,-7.9334,0,-7.805,-7.8209,-7.8242,-7.8353,-7.853,-7.8534,-7.8708,-7.8748,-7.8819,-7.8935,-7.8901,-7.9011,-7.9017,-7.9129,-7.9137,-7.9308,-7.9335,-7.935,-7.935,-7.9354,-7.9353,-7.9396,-7.938,-7.9345,-7.9342,-7.934,-7.9339,0,-7.8313,-7.8341,-7.8536,-7.8621,-7.8646,-7.8773,-7.8844,-7.8949,-7.8975,-7.9123,-7.9158,-7.9198,-7.9328,-7.9346,-7.9497,-7.9502,-7.9708,-7.9689,-7.9681,-7.9678,-7.9807,-7.9796,-8.022,-8.0277,-7.991,-7.9914,-7.9917,0,-7.8496,-7.8618,-7.8717,-7.8795,-7.8848,-7.8972,-7.9049,-7.9056,-7.9137,-7.9244,-7.9337,-7.9464,-7.9566,-7.9775,-7.9816,-7.9931,-7.9916,-8.0057,-7.9933,-7.9933,-7.992,-7.9913,-7.9925,-8.0081,-8.0085,-8.0088,-8.0091,0,-7.8818,-7.8826,-7.894,-7.906,-7.9154,-7.9247,-7.9335,-7.94,-7.9418,-7.951,-7.9645,-7.9724,-7.988,-8.0006,-8.0121,-8.0165,-8.0132,-8.013,-8.0166,-8.0172,-8.0163,-8.0171,-7.9748,-8.012,-8.0117,-8.0115,-8.0113,-8.0112,-7.9048,-7.9155,-7.9242,-7.937,-7.9438,-7.9521,-7.9625,-7.9665,-7.9779,-7.9909,-7.9904,-8.0052,-8.0133,-8.0284,-8.0337,-8.0451,-8.0405,-8.0457,-8.047,-8.0483,-8.0497,-8.0143,-8.0471,-8.047,-8.047,-8.0469,-8.0468,0,-7.9369,-7.9423,-7.9541,-7.9668,-7.9768,-7.973,-7.9825,-7.9911,-8.0043,-8.0123,-8.0225,-8.0379,-8.0502,-8.0553,-8.0672,-8.0754,-8.0741,-8.0785,-8.078,-8.0791,-8.0531,-8.0489,-8.0793,-8.0793,-8.0793,-8.0793,-8.0793,-8.0793,-7.9549,-7.9729,-7.9748,-7.996,-8.0012,-8.0159,-8.0217,-8.0293,-8.0358,-8.0533,-8.0636,-8.0669,-8.0737,-8.0861,-8.0971,-8.0983,-8.1029,-8.108,-8.1085,-8.0842,-8.0809,-8.0778,-8.0738,-8.109,-8.109,-8.1335,-8.1338,-8.1339]}]]